STARLINK-32648 (62301 NORAD) Tracking and Keplerian Element Data

This shows tracking and keplerian element data for the satellite.

Feedback or suggestion? Click here.




ElementValue
Catalog62301
NameSTARLINK-32648
Epoch Orbit824
Epoch Day34.7530238
Epoch Year2025
RAAN251.2976
Inclination53.1564
Eccentricity0.0001048
Argument of Perigee69.3978
Mean Anonmoly290.7139
Mean Motion15.39619838
Decay Rate1.529E-05
L11 62301U 24239A 25034.75302380 .00001529 00000+0 48204-4 0 9992
L22 62301 53.1564 251.2976 0001048 69.3978 290.7139 15.39619838 8243



Live tracking and technical data element details for STARLINK-32648 (NORAD 62301). STARLINK-32648 can be tracked NOW for your location showing map with azimuth and elevation plus other details from your city location.







IsCatalogInMostPopularTable: catalog: 62301, numindb: 13
Update: records affected: 1



GetName: 62301 STARLINK-32648

Hit Count: updated at: Sat, 24 May 2025 17:02:29 GMT